Location: Unspecified
(52.4292°N, 19.3359°E)
Time: 01:06:18
(UTC+02:00)

Altair - Pass Details

Date: 20 May 2024
Orbit: 1502 x 1682 km, 47.2° (Epoch: 20 June)

Event Time Altitude Azimuth Distance (km) Brightness Sun altitude
Rises 13:04:36 0° 247° (WSW) 4,866 10.4 57.3°
Reaches altitude 10° 13:07:44 10° 244° (WSW) 3,899 10.1 57.2°
Maximum altitude 13:17:34 62° 167° (SSE) 1,847 9.9 56.9°
Drops below altitude 10° 13:27:31 10° 90° (E) 3,943 9.6 56.4°
Sets 13:30:43 0° 88° (E) 4,925 10.0 56.2°
